Location: Saalfelden+am+Steinernen+Meer
(47.4274°N, 12.8411°E)
Time: 02:19:10
(UTC+01:00)

Envisat - Visible Passes

Search period start: 17 January 2018 00:00
Search period end: 27 January 2018 00:00
Orbit: 764 x 766 km, 98.2° (Epoch: 16 January)

Date Brightness Start Highest point End Pass type
(mag) Time Alt. Az. Time Alt. Az. Time Alt. Az.
17 Jan 4.3 18:19:48 20° NE 18:19:48 20° NE 18:22:48 10° NNE visible
17 Jan 4.4 19:59:59 32° NNW 19:59:59 32° NNW 20:02:44 10° NNW visible
18 Jan 4.8 17:42:25 11° ENE 17:42:55 11° NE 17:44:11 10° NE visible
18 Jan 3.7 19:22:37 41° N 19:22:37 41° N 19:26:00 10° N visible
18 Jan 5.7 21:02:48 14° WNW 21:02:48 14° WNW 21:03:57 10° NW visible
19 Jan 3.8 18:45:13 30° NE 18:45:13 30° NE 18:48:56 10° N visible
19 Jan 4.8 20:25:25 27° NW 20:25:25 27° NW 20:28:07 10° NNW visible
20 Jan 4.4 18:07:49 17° ENE 18:08:07 17° ENE 18:11:21 10° NNE visible
20 Jan 3.7 19:48:01 47° NNW 19:48:01 47° NNW 19:51:38 10° NNW visible
21 Jan 3.3 19:10:37 47° NE 19:10:37 47° NE 19:14:48 10° N visible
21 Jan 5.3 20:50:47 20° WNW 20:50:47 20° WNW 20:53:11 10° NW visible
22 Jan 6.0 07:12:09 10° ENE 07:14:45 14° E 07:17:18 10° ESE visible
22 Jan 3.9 18:33:12 27° ENE 18:33:24 27° ENE 18:37:36 10° N visible
22 Jan 4.2 20:13:23 39° WNW 20:13:23 39° WNW 20:17:06 10° NNW visible
23 Jan 4.6 17:55:47 13° ENE 17:57:08 14° NE 17:59:46 10° NNE visible
23 Jan 3.0 19:35:58 71° N 19:35:58 71° N 19:40:31 10° NNW visible
23 Jan 5.8 21:16:09 13° WNW 21:16:09 13° WNW 21:17:36 10° WNW visible
24 Jan 3.3 18:58:32 42° ENE 18:58:48 42° ENE 19:03:34 10° N visible
24 Jan 4.9 20:38:43 27° WNW 20:38:43 27° WNW 20:42:19 10° NW visible
25 Jan 6.3 07:02:11 10° ENE 07:03:27 11° E 07:04:42 10° E visible
25 Jan 4.1 18:21:06 20° E 18:22:23 22° ENE 18:26:15 10° NNE visible
25 Jan 3.5 20:01:17 57° W 20:01:17 57° W 20:06:03 10° NNW visible
26 Jan 4.8 17:44:24 10° ENE 17:46:10 12° NE 17:47:57 10° NNE visible
26 Jan 2.8 19:23:51 65° ESE 19:24:17 70° ENE 19:29:21 10° N visible
26 Jan 5.5 21:04:01 17° W 21:04:01 17° W 21:07:06 10° NW visible
